Tekamah, NE

5:10 AM CDT on March 27, 2017 (GMT -0500)
Tekamah

Weather History for KTQE - February, 2014

Change the Weather History Date:

Sunday, February 9, 2014

  Actual Average Record
Temperature  
Mean Temperature 7 °F -  
Max Temperature 16 °F 33 °F 64 °F (1977)
Min Temperature -2 °F 9 °F -18 °F (1975)
Degree Days  
Heating Degree Days 58    
Moisture  
Dew Point -1 °F    
Average Humidity 68    
Maximum Humidity 84    
Minimum Humidity 51    
Precipitation  
Precipitation 0.00 in - - ()
Sea Level Pressure  
Sea Level Pressure 30.41 in    
Wind  
Wind Speed 11 mph (NNW)    
Max Wind Speed 20 mph    
Max Gust Speed -    
Visibility 10 miles    
Events      
Averages and records for this station are not official NWS values.
T = Trace of Precipitation, MM = Missing Value Source: NWS Daily Summary

Daily Weather History Graph

Daily Weather History Graph

Search for Another Location

Airport or City:

Trip Planner

Search our weather history database for the weather conditions in past years. The results will help you decide how hot, cold, wet, or windy it might be!

Date:

Astronomy

Feb. 09, 2014 Rise Set
Actual Time 7:27 AM CST 5:50 PM CST
Civil Twilight 6:59 AM CST 6:19 PM CST
Nautical Twilight 6:26 AM CST 6:52 PM CST
Astronomical Twilight 5:53 AM CST 7:24 PM CST
Moon 1:29 PM CST (2/9) 3:35 AM CST (2/9)
Length of Visible Light 11h 20m
Length of Day
10h 22m
Waxing Gibbous, 77% of the Moon is Illuminated
Feb 9
Waxing Gibbous
Feb 14
Full
Feb 22
Last Quarter
Mar 1
New
Mar 8
First Quarter

Hourly Weather History & Observations

Time (CST) Temp. Windchill Dew Point Humidity Pressure Visibility Wind Dir Wind Speed Gust Speed Precip Events Conditions
12:54 AM 16.0 °F 4.4 °F 8.1 °F 71% 30.30 in 10.0 mi NNW 9.2 mph - N/A   Mostly Cloudy
1:54 AM 12.9 °F 3.8 °F 7.0 °F 77% 30.31 in 9.0 mi NNW 5.8 mph - N/A   Overcast
2:54 AM 10.9 °F 0.2 °F 7.0 °F 84% 30.31 in 8.0 mi NW 6.9 mph - N/A   Clear
3:54 AM 10.9 °F -2.6 °F 5.0 °F 77% 30.30 in 10.0 mi NNW 10.4 mph - N/A   Partly Cloudy
4:54 AM 12.0 °F -3.4 °F 6.1 °F 77% 30.31 in 10.0 mi NNW 13.8 mph - N/A   Mostly Cloudy
5:54 AM 10.9 °F -2.6 °F 5.0 °F 77% 30.32 in 7.0 mi North 10.4 mph - 0.00 in   Overcast
6:21 AM 10.0 °F -8.1 °F 3.9 °F 76% 30.30 in 9.0 mi North 18.4 mph - N/A   Scattered Clouds
6:54 AM 7.0 °F -12.6 °F -0.0 °F 73% 30.36 in 10.0 mi North 19.6 mph - N/A   Clear
7:54 AM 3.9 °F -16.6 °F -4.0 °F 70% 30.38 in 10.0 mi North 19.6 mph - N/A   Clear
8:54 AM 3.9 °F -15.0 °F -5.1 °F 66% 30.41 in 10.0 mi North 16.1 mph - N/A   Partly Cloudy
9:54 AM 5.0 °F -13.0 °F -5.1 °F 63% 30.45 in 10.0 mi North 15.0 mph - N/A   Overcast
10:54 AM 7.0 °F -9.8 °F -4.0 °F 61% 30.44 in 10.0 mi North 13.8 mph - N/A   Overcast
11:54 AM 9.0 °F -6.6 °F -2.9 °F 59% 30.45 in 10.0 mi North 12.7 mph - N/A   Mostly Cloudy
12:54 PM 10.0 °F -5.9 °F -2.9 °F 56% 30.44 in 10.0 mi North 13.8 mph - N/A   Scattered Clouds
1:54 PM 12.0 °F -2.7 °F -0.9 °F 56% 30.44 in 10.0 mi NNW 12.7 mph - N/A   Clear
2:54 PM 12.9 °F -1.6 °F -2.0 °F 51% 30.43 in 10.0 mi North 12.7 mph - N/A   Clear
3:54 PM 12.9 °F -1.6 °F -0.9 °F 54% 30.42 in 10.0 mi North 12.7 mph - N/A   Mostly Cloudy
4:54 PM 12.0 °F -1.3 °F -0.9 °F 56% 30.44 in 10.0 mi North 10.4 mph - N/A   Mostly Cloudy
5:54 PM 9.0 °F 0.6 °F -2.0 °F 61% 30.46 in 10.0 mi NNW 4.6 mph - N/A   Overcast
6:54 PM 5.0 °F -4.1 °F -2.9 °F 70% 30.48 in 10.0 mi NW 4.6 mph - N/A   Partly Cloudy
7:54 PM 1.9 °F -7.6 °F -6.0 °F 69% 30.49 in 10.0 mi NW 4.6 mph - N/A   Clear
8:54 PM 1.9 °F -5.6 °F -5.1 °F 72% 30.52 in 10.0 mi NNW 3.5 mph - N/A   Scattered Clouds
9:54 PM -0.0 °F -13.0 °F -6.0 °F 76% 30.53 in 10.0 mi NNW 6.9 mph - N/A   Clear
10:54 PM -2.0 °F -13.9 °F -8.0 °F 76% 30.53 in 10.0 mi NNW 5.8 mph - N/A   Clear
11:54 PM -2.0 °F -16.6 °F -8.0 °F 76% 30.52 in 10.0 mi North 8.1 mph - N/A   Clear